[[{"header":{"parameterUnit":"m.s-1","parameterCategory":1,"la1":30.2992,"la2":30.254,"lo1":-89.0895,"lo2":-89.0443,"dy":0.0025,"dx":0.0025,"nx":19,"ny":19,"refTime":"2026-05-07T03:00:00:Z","depth":0,"parameterNumber":2,"parameterNumberName":"U-component_of_WINDS"},"data":[0,0,0,-2.0886,-2.0889,-2.1052,-2.1053,-2.126,-2.1262,0,0,0,0,0,0,0,0,0,0,0,-2.0835,-2.0837,-2.0886,-2.089,-2.1052,-2.1053,-2.126,-2.1262,0,0,0,0,0,0,0,0,0,0,0,-2.0835,-2.0836,-2.0838,-2.089,-2.1052,-2.1053,-2.1259,-2.1137,0,0,0,0,0,0,0,0,0,0,-2.0979,-2.093,-2.0836,-2.0838,-2.0891,-2.1052,-2.1053,-2.1131,-2.1145,-2.1185,0,-2.1219,0,-2.1243,-2.1275,-2.1276,0,0,0,-2.0892,-2.0919,-2.0965,-2.0838,-2.0893,-2.1052,-2.098,-2.1139,-2.1154,-2.1203,-2.1222,-2.123,-2.1247,-2.1277,-2.1278,-2.1497,-2.1498,0,0,-2.0883,-2.0864,-2.0954,-2.0974,-2.0947,-2.0974,-2.0985,-2.1148,-2.1168,-2.1222,-2.1234,-2.125,-2.1278,-2.128,-2.1496,-2.1497,0,0,0,-2.0856,-2.0858,-2.0899,-2.0966,-2.0995,-2.0979,-2.0991,-2.1161,-2.1176,-2.1237,-2.1253,-2.1279,-2.1282,-2.1495,-2.1496,-2.1522,0,0,0,-2.085,-2.0842,-2.0895,-2.0885,-2.0992,-2.108,-2.1,-2.1165,-2.1184,-2.1252,-2.1279,-2.1284,-2.1494,-2.1496,-2.1519,-2.1538,0,0,0,-2.0826,-2.0839,-2.0861,-2.0884,-2.0953,-2.1078,-2.1102,-2.1169,-2.1194,-2.1276,-2.1284,-2.1493,-2.1495,-2.1517,-2.1534,-2.159,0,0,0,-2.0794,-2.0883,-2.0861,-2.0967,-2.0951,-2.1091,-2.1101,-2.1207,-2.1281,-2.128,-2.1494,-2.1496,-2.1516,-2.1531,-2.1587,-2.1634,-2.1651,0,0,-2.0896,-2.0895,-2.0958,-2.0943,-2.1082,-2.1068,-2.1211,-2.1298,-2.1325,-2.1438,-2.1444,-2.152,-2.1534,-2.1589,-2.1754,-2.1767,0,0,0,-2.0984,-2.103,-2.1071,-2.1139,-2.1206,-2.1265,-2.1331,-2.1363,-2.146,-2.1378,-2.1556,-2.1564,-2.1598,-2.1621,-2.1633,-2.1663,-2.1506,-2.1506,-2.1505,-2.1102,-2.1129,-2.1236,-2.1282,-2.1348,-2.1414,-2.1471,-2.1526,-2.1535,-2.1576,-2.1611,-2.1707,-2.1734,-2.1742,-2.1773,-2.1637,-2.1637,-2.1637,-2.1637,-2.1254,-2.1323,-2.1331,-2.1437,-2.1465,-2.1555,-2.1623,-2.1626,-2.1715,-2.1684,-2.1715,-2.1679,-2.1756,-2.1785,-2.1639,-2.1639,-2.1639,-2.1639,-2.1638,-2.1336,-2.1373,-2.1408,-2.1509,-2.1583,-2.1627,-2.1711,-2.1734,-2.1757,-2.1787,-2.1826,-2.1825,-2.1828,-2.1803,-2.1804,-2.1804,-2.1804,-2.1804,-2.1805,-2.1406,-2.1445,-2.1512,-2.1589,-2.1635,-2.1698,-2.1764,-2.1811,-2.1869,-2.1879,-2.188,-2.1885,-2.1758,-2.1726,-2.181,-2.1809,-2.1808,-2.1808,-2.1808,-2.1552,-2.1522,-2.1626,-2.1671,-2.1763,-2.1835,-2.1862,-2.1954,-2.1996,-2.2037,-2.2035,-2.1937,-2.1939,-2.193,-2.1904,-2.2028,-2.2028,-2.2028,-2.2028,-2.1621,-2.1623,-2.1733,-2.1805,-2.1877,-2.1911,-2.2029,-2.2081,-2.213,-2.2158,-2.2143,-2.211,-2.2099,-2.2107,-2.2094,-2.207,-2.2235,-2.2235,-2.2235,-2.1713,-2.1722,-2.1817,-2.1862,-2.1935,-2.1997,-2.2108,-2.2191,-2.2241,-2.2244,-2.218,-2.2171,-2.2118,-2.2099,-2.2103,-2.2082,-2.2038,0,0]},{"header":{"parameterUnit":"m.s-1","parameterCategory":1,"la1":30.2992,"la2":30.254,"lo1":-89.0895,"lo2":-89.0443,"dy":0.0025,"dx":0.0025,"nx":19,"ny":19,"refTime":"2026-05-07T03:00:00:Z","depth":0,"parameterNumber":3,"parameterNumberName":"V-component_of_WINDS"},"data":[0,0,0,-2.7225,-2.7225,-2.7251,-2.7251,-2.7295,-2.7296,0,0,0,0,0,0,0,0,0,0,0,-2.7224,-2.7225,-2.7225,-2.7225,-2.7251,-2.7251,-2.7295,-2.7296,0,0,0,0,0,0,0,0,0,0,0,-2.7224,-2.7225,-2.7225,-2.7226,-2.7251,-2.7251,-2.7295,-2.7271,0,0,0,0,0,0,0,0,0,0,-2.7244,-2.7251,-2.7224,-2.7225,-2.7226,-2.7251,-2.7251,-2.727,-2.7273,-2.7288,0,-2.7305,0,-2.7301,-2.7299,-2.73,0,0,0,-2.722,-2.7249,-2.725,-2.7225,-2.7226,-2.7251,-2.7238,-2.7272,-2.7275,-2.7292,-2.7305,-2.7306,-2.7302,-2.73,-2.73,-2.7409,-2.741,0,0,-2.7218,-2.7233,-2.7247,-2.7252,-2.725,-2.7237,-2.7239,-2.7273,-2.7288,-2.7305,-2.7307,-2.7302,-2.73,-2.7301,-2.7408,-2.7409,0,0,0,-2.7218,-2.7232,-2.7231,-2.7251,-2.7254,-2.7238,-2.724,-2.7287,-2.7285,-2.7308,-2.7303,-2.73,-2.7301,-2.7407,-2.7408,-2.746,0,0,0,-2.7217,-2.7232,-2.7231,-2.724,-2.7254,-2.7271,-2.7253,-2.7283,-2.7286,-2.7303,-2.73,-2.7302,-2.7406,-2.7408,-2.7457,-2.7482,0,0,0,-2.722,-2.7232,-2.7238,-2.7241,-2.7253,-2.727,-2.7271,-2.7283,-2.7284,-2.73,-2.7302,-2.7406,-2.7408,-2.7454,-2.7478,-2.7515,0,0,0,-2.7227,-2.7285,-2.7239,-2.7301,-2.7252,-2.7303,-2.727,-2.7307,-2.7327,-2.7301,-2.7406,-2.7408,-2.7453,-2.7475,-2.7512,-2.7549,-2.7566,0,0,-2.7307,-2.7295,-2.733,-2.729,-2.7352,-2.7297,-2.7366,-2.7371,-2.7359,-2.7393,-2.7395,-2.7458,-2.7477,-2.7514,-2.7655,-2.7669,0,0,0,-2.736,-2.7385,-2.7399,-2.7418,-2.7423,-2.7429,-2.7421,-2.7423,-2.7451,-2.738,-2.7481,-2.7492,-2.7513,-2.753,-2.7542,-2.7559,-2.7417,-2.7417,-2.7416,-2.7494,-2.7476,-2.7532,-2.7517,-2.7536,-2.7528,-2.7541,-2.7542,-2.7518,-2.7542,-2.7552,-2.764,-2.766,-2.7669,-2.7686,-2.757,-2.757,-2.757,-2.7571,-2.7609,-2.7642,-2.7608,-2.7651,-2.7631,-2.7666,-2.766,-2.7641,-2.7671,-2.7631,-2.7649,-2.7606,-2.7684,-2.7698,-2.7574,-2.7574,-2.7573,-2.7573,-2.7572,-2.7694,-2.7707,-2.7708,-2.7733,-2.7755,-2.7738,-2.7768,-2.7748,-2.773,-2.7748,-2.7756,-2.7755,-2.7751,-2.7753,-2.7753,-2.7754,-2.7754,-2.7754,-2.7754,-2.7782,-2.7782,-2.7809,-2.7819,-2.7828,-2.7839,-2.783,-2.7839,-2.7843,-2.7827,-2.7827,-2.78,-2.7695,-2.7669,-2.7759,-2.7758,-2.7758,-2.7757,-2.7757,-2.7905,-2.7874,-2.7917,-2.7927,-2.7936,-2.7958,-2.7933,-2.7953,-2.7957,-2.7972,-2.7941,-2.7867,-2.7853,-2.7843,-2.7822,-2.7946,-2.7946,-2.7946,-2.7946,-2.7977,-2.7968,-2.8007,-2.8023,-2.8037,-2.8019,-2.8067,-2.806,-2.8049,-2.805,-2.8029,-2.7999,-2.799,-2.7981,-2.7968,-2.7948,-2.8101,-2.8101,-2.8101,-2.8051,-2.8042,-2.8087,-2.8075,-2.8081,-2.8085,-2.813,-2.815,-2.813,-2.8107,-2.805,-2.8044,-2.7994,-2.7979,-2.7955,-2.7937,-2.7898,0,0]}]]